Wind_Speed
36 40 43 48 52 55 58 61 64 67 70 72 71 66 59 53 50 49 51 52 53 54 55 56 57 57 57 57 57 56 55 54 53 52 51 50 49 48 47 45 43 41 39 37
36 41 45 49 54 58 60 63 65 68 71 73 70 63 57 52 50 51 53 55 56 57 58 59 59 59 58 57 55 54 53 52 51 50 49 48 47 47 47 46 44 42 40 37
40 44 48 53 58 60 62 64 67 69 72 73 68 61 56 52 52 54 56 58 59 60 61 61 61 58 55 52 49 49 48 48 47 47 46 46 44 43 43 43 43 42 40 38
43 48 52 56 59 62 64 65 68 70 73 72 67 60 54 53 54 56 58 60 61 62 61 59 55 50 48 48 48 48 48 48 49 49 48 46 44 42 41 40 40 40 40 39
45 50 54 58 61 64 65 66 69 71 72 70 65 58 54 54 55 58 60 61 62 60 57 51 47 46 47 48 49 50 51 51 51 51 50 48 45 42 39 37 36 37 38 39
46 51 56 60 63 65 67 67 70 71 72 69 65 58 56 56 58 60 61 61 59 54 48 45 45 46 47 49 51 53 53 54 54 53 51 49 46 42 39 36 34 33 34 37
48 52 57 61 65 66 66 68 69 71 71 68 62 57 57 58 60 61 61 58 53 47 45 44 45 47 49 52 54 56 57 57 56 54 52 50 47 43 39 36 33 31 30 32
50 54 59 62 65 66 66 68 69 71 70 65 59 56 57 59 60 61 58 52 47 43 43 44 46 49 52 54 56 58 59 58 56 55 53 51 48 44 41 37 33 31 29 29
49 54 59 63 65 66 66 67 69 71 68 63 57 55 57 59 60 58 54 47 43 42 43 46 49 52 54 56 58 59 59 58 56 55 54 52 49 46 42 39 35 31 29 27
50 55 60 63 65 65 66 67 69 69 66 60 55 55 57 59 58 55 49 43 41 41 44 48 51 54 56 58 59 60 59 57 57 56 54 53 51 49 45 40 36 32 29 27
51 56 60 63 64 65 65 67 69 68 64 58 55 56 57 58 56 50 44 41 40 43 46 50 52 55 57 59 60 60 58 57 57 57 58 57 55 52 48 43 38 33 28 26
51 56 60 62 63 64 64 66 68 66 61 57 55 56 57 56 52 46 41 39 41 45 48 51 53 55 57 60 61 59 57 57 58 58 60 61 60 55 49 44 38 34 29 26
52 56 59 62 62 63 64 65 66 64 59 55 55 56 56 54 49 43 39 40 43 46 49 52 54 55 57 60 61 59 57 58 58 58 61 63 64 60 51 41 36 32 28 25
52 56 59 61 61 62 63 64 65 62 58 55 54 55 55 51 45 40 38 40 44 47 50 52 53 55 58 61 61 58 57 58 58 58 61 65 67 65 57 44 33 27 25 22
52 55 58 60 60 60 62 64 64 60 56 54 54 54 53 48 42 38 38 41 44 47 49 51 52 55 58 61 60 57 56 57 59 60 62 66 69 68 60 47 34 25 20 18
52 55 57 58 59 59 61 63 63 59 55 53 53 53 51 46 40 37 38 41 44 46 48 49 51 55 58 60 61 57 55 58 60 62 62 64 68 70 63 51 37 26 19 15
52 54 56 57 58 59 61 62 61 57 53 51 52 52 48 43 38 37 40 43 45 46 47 48 51 54 57 60 61 58 55 57 60 61 61 63 67 71 68 57 45 34 24 17
52 54 56 56 57 58 60 61 58 55 51 50 51 50 46 40 37 37 39 42 44 46 47 47 49 52 56 59 59 58 57 58 58 59 61 62 65 68 70 65 56 45 34 25
52 54 55 56 56 57 59 59 56 53 50 49 49 48 44 38 35 36 38 40 42 43 43 44 46 51 54 56 58 59 59 58 57 57 59 61 63 64 66 67 64 58 49 39
52 54 55 55 55 56 57 57 54 50 48 47 48 46 41 37 34 35 38 40 41 42 41 41 44 48 51 54 57 59 59 58 57 56 57 59 61 62 63 63 64 63 60 55
52 53 54 54 54 55 56 55 52 49 46 46 46 44 39 35 33 34 37 39 40 40 40 40 42 46 49 53 55 57 57 58 58 57 57 58 59 59 60 60 60 60 60 59
52 53 53 52 53 54 54 53 50 47 45 45 45 42 38 33 32 33 35 37 38 38 38 38 40 43 47 50 52 54 55 56 57 58 58 58 58 58 58 58 57 57 56 55
51 52 51 51 51 52 53 51 48 45 43 43 43 40 36 32 31 32 33 35 37 37 37 37 38 41 43 46 49 51 53 54 56 57 58 58 59 59 58 57 56 55 54 53
50 50 50 50 50 51 50 49 46 43 41 42 42 39 35 31 29 29 31 33 35 36 37 36 37 38 40 43 45 47 49 51 53 55 57 58 58 59 59 59 57 56 54 53
49 49 48 48 49 49 49 47 44 41 40 40 40 38 34 29 27 28 29 31 33 35 36 36 36 36 38 39 41 44 46 48 50 52 53 55 56 57 58 58 58 58 57 55
48 47 47 47 47 47 47 45 42 39 39 39 39 37 32 28 26 25 27 29 31 33 34 35 35 35 36 37 38 40 42 45 47 49 50 52 53 54 55 55 56 57 57 56
47 46 45 45 45 45 45 43 39 38 37 38 37 35 32 27 24 24 25 26 28 30 32 33 34 35 35 36 37 38 40 42 44 45 47 49 50 51 52 53 54 54 55 55
Wind_Direction
333 333 335 334 331 330 331 332 332 333 334 335 336 334 333 331 331 332 333 332 331 329 328 327 326 324 322 321 319 317 315 312 310 307 303 299 295 291 288 286 284 284 284 282
332 332 334 334 332 333 333 333 333 335 335 336 337 335 333 332 332 333 333 332 331 330 329 328 327 325 324 323 322 321 320 318 316 314 310 305 299 294 288 284 280 278 278 277
331 332 334 335 334 334 334 334 335 336 336 337 337 335 334 332 333 333 334 333 332 331 330 330 329 329 330 331 332 332 331 329 328 325 322 317 310 302 293 286 279 274 271 270
331 333 336 335 334 334 335 335 335 336 337 338 338 337 334 333 334 334 334 334 333 332 332 332 334 336 338 339 340 339 338 337 335 333 330 326 320 313 304 293 283 273 267 264
332 333 334 335 335 334 335 336 336 336 338 338 338 337 334 334 335 335 335 335 334 334 336 338 341 343 344 343 343 342 340 338 336 335 333 330 326 321 314 305 293 280 268 261
332 334 335 334 334 334 335 335 336 337 339 339 339 338 337 336 337 337 336 336 336 338 342 345 345 346 346 346 345 344 342 339 337 336 334 332 329 325 320 314 303 291 276 263
333 334 334 334 334 334 335 336 336 338 340 340 340 339 338 338 338 338 338 338 340 343 346 348 349 349 348 347 346 344 343 341 339 337 336 334 332 328 324 320 313 302 287 271
332 334 334 334 333 333 334 335 337 339 341 341 341 339 339 339 339 339 339 341 344 347 349 350 350 350 349 348 347 346 345 343 342 340 338 336 334 331 327 323 317 309 298 283
332 333 333 333 332 333 334 336 337 340 342 342 341 340 340 340 340 340 342 344 347 350 351 351 351 351 350 349 348 348 347 346 346 344 342 340 337 333 328 323 318 311 303 291
331 332 332 332 332 333 334 336 338 341 342 342 341 341 341 341 341 342 344 347 350 352 352 352 351 350 350 350 351 351 351 350 350 349 348 345 340 335 329 324 318 311 304 295
330 331 332 331 332 333 334 336 339 342 343 343 342 342 342 343 343 345 347 350 352 353 354 353 352 351 352 352 353 353 353 354 354 353 353 350 346 339 332 325 318 311 303 295
329 330 331 331 331 333 334 337 340 343 344 343 343 343 344 344 346 347 350 352 354 354 354 353 353 353 353 354 354 354 355 355 355 356 355 354 350 345 336 327 318 311 304 296
329 330 330 330 331 333 335 338 341 344 344 344 344 344 345 346 348 349 352 354 354 354 354 354 354 355 355 356 356 356 356 356 357 357 357 356 353 350 343 333 320 310 301 294
329 330 330 330 331 333 336 339 342 344 345 345 345 346 347 348 350 352 354 354 355 355 355 355 356 357 358 358 358 358 358 358 358 358 358 358 358 355 350 343 330 315 303 292
328 329 330 330 332 334 336 340 343 345 345 345 346 347 349 350 351 353 355 355 356 356 356 357 358 360 0 0 0 0 0 1 1 1 2 2 2 0 357 353 345 332 315 299
328 330 330 330 332 334 337 341 344 345 346 346 347 348 350 351 353 354 355 357 357 357 358 359 1 2 2 3 3 2 1 3 5 5 5 5 6 7 6 5 1 354 342 323
329 330 331 331 332 335 338 342 344 345 346 346 348 349 351 352 353 355 356 357 358 359 0 2 4 4 5 5 6 5 5 7 8 8 8 9 12 14 15 15 15 12 8 360
330 331 331 331 333 336 339 342 344 345 345 347 348 350 352 353 354 356 357 357 359 0 2 4 5 6 8 8 8 9 10 10 10 11 12 14 17 19 22 24 25 25 24 22
330 331 331 332 334 336 339 342 344 345 345 347 349 351 352 353 354 356 358 359 1 2 3 5 6 8 10 10 11 13 14 14 13 14 15 18 21 23 25 29 32 34 36 36
330 331 331 332 334 336 339 342 343 344 345 347 349 351 352 352 354 356 358 0 2 3 4 6 8 10 11 12 14 16 18 18 18 17 18 21 23 25 28 30 33 37 40 42
330 330 330 331 334 336 339 342 343 344 344 346 349 351 351 352 353 356 359 1 3 3 5 6 9 11 13 15 16 18 19 21 21 21 22 23 25 27 29 31 34 36 39 42
329 329 329 331 333 336 339 341 342 343 344 346 348 350 350 351 352 355 360 2 3 4 6 7 9 12 15 17 18 19 20 22 23 24 25 26 27 28 30 31 33 35 37 39
327 327 328 330 332 335 338 340 341 342 343 345 348 349 350 350 352 356 359 2 3 5 7 8 10 12 15 17 18 20 21 23 24 25 26 28 29 30 31 31 32 34 35 36
325 326 327 329 331 334 337 339 340 340 341 344 347 349 349 349 350 354 358 1 3 6 8 10 11 12 14 17 18 19 21 23 25 26 27 29 30 31 32 32 33 33 34 35
323 324 325 327 330 334 336 338 339 338 340 343 346 348 348 347 349 353 356 360 4 7 9 11 12 13 14 16 17 19 21 23 24 25 26 27 29 31 33 33 34 34 35 35
321 322 323 326 329 332 335 336 337 337 338 342 345 347 346 345 345 349 353 358 3 7 10 12 13 14 14 15 17 18 20 21 23 24 25 26 28 30 31 32 33 34 35 35
318 319 321 324 327 331 333 335 335 335 337 341 344 345 344 343 342 345 350 356 2 6 9 12 15 16 16 17 18 18 18 20 22 23 25 26 27 29 30 32 33 34 34 35
Height
5808 5801 5795 5786 5776 5765 5753 5740 5727 5714 5699 5685 5671 5656 5643 5632 5621 5610 5599 5588 5577 5566 5555 5544 5533 5522 5511 5500 5490 5481 5472 5464 5456 5448 5441 5435 5430 5425 5421 5418 5415 5413 5410 5408
5804 5797 5789 5780 5769 5757 5745 5732 5718 5705 5691 5676 5662 5647 5636 5624 5614 5604 5593 5581 5569 5557 5545 5533 5522 5510 5499 5488 5478 5468 5458 5449 5441 5433 5425 5419 5413 5408 5404 5401 5399 5397 5396 5395
5797 5790 5782 5773 5761 5749 5737 5723 5710 5697 5685 5669 5655 5641 5629 5618 5608 5596 5585 5573 5560 5548 5535 5522 5510 5498 5487 5477 5467 5457 5447 5438 5429 5420 5412 5404 5397 5391 5387 5383 5382 5381 5380 5380
5790 5783 5774 5768 5754 5742 5729 5716 5702 5688 5674 5660 5646 5633 5622 5611 5600 5589 5577 5565 5552 5539 5525 5513 5501 5490 5479 5469 5460 5450 5440 5430 5421 5411 5402 5393 5385 5377 5371 5367 5365 5364 5364 5364
5784 5775 5768 5759 5746 5733 5721 5710 5696 5682 5668 5653 5640 5628 5617 5606 5594 5582 5569 5556 5542 5529 5517 5505 5495 5485 5475 5465 5455 5445 5434 5424 5414 5404 5393 5383 5374 5366 5359 5354 5350 5347 5347 5348
5778 5769 5760 5752 5739 5725 5714 5702 5688 5674 5660 5646 5632 5622 5612 5598 5587 5574 5560 5547 5534 5522 5511 5501 5491 5482 5472 5461 5450 5440 5428 5417 5405 5394 5384 5373 5364 5355 5348 5342 5337 5334 5332 5333
5772 5763 5754 5744 5731 5719 5707 5696 5680 5666 5652 5637 5624 5613 5602 5590 5578 5565 5552 5540 5527 5517 5507 5498 5489 5479 5468 5457 5445 5434 5421 5409 5397 5385 5374 5364 5354 5345 5337 5331 5326 5321 5319 5318
5765 5757 5749 5737 5724 5713 5702 5687 5674 5660 5645 5631 5618 5607 5596 5584 5572 5559 5546 5534 5523 5514 5505 5496 5486 5476 5465 5453 5441 5428 5415 5402 5389 5376 5365 5354 5344 5335 5327 5321 5315 5310 5307 5305
5761 5754 5742 5730 5718 5707 5694 5681 5668 5654 5640 5626 5614 5603 5592 5580 5567 5554 5542 5531 5521 5512 5503 5493 5483 5472 5461 5449 5436 5423 5409 5395 5382 5370 5357 5346 5336 5327 5318 5311 5305 5300 5296 5293
5754 5745 5736 5724 5712 5700 5688 5675 5662 5648 5634 5621 5609 5598 5587 5575 5562 5550 5538 5528 5520 5511 5501 5491 5480 5469 5457 5445 5432 5418 5404 5391 5378 5365 5353 5340 5328 5317 5308 5300 5294 5289 5285 5282
5749 5740 5730 5718 5706 5694 5682 5669 5656 5642 5628 5616 5605 5594 5583 5570 5558 5546 5536 5527 5518 5509 5500 5489 5478 5466 5454 5441 5428 5414 5401 5387 5374 5361 5348 5335 5322 5308 5296 5288 5281 5276 5273 5271
5743 5734 5724 5712 5700 5688 5676 5664 5650 5637 5623 5611 5601 5590 5578 5566 5554 5543 5534 5525 5517 5507 5497 5487 5476 5464 5451 5438 5424 5411 5398 5385 5371 5357 5343 5329 5315 5302 5287 5275 5268 5263 5260 5258
5737 5727 5717 5706 5694 5682 5670 5658 5645 5631 5619 5607 5597 5586 5574 5562 5551 5541 5532 5524 5515 5506 5496 5485 5474 5462 5449 5436 5421 5407 5394 5381 5368 5354 5340 5325 5308 5292 5278 5266 5256 5250 5247 5246
5730 5721 5710 5699 5688 5677 5665 5653 5639 5626 5614 5604 5593 5582 5570 5559 5549 5540 5531 5523 5514 5505 5495 5484 5473 5461 5448 5434 5420 5406 5393 5380 5367 5353 5338 5321 5303 5284 5267 5254 5245 5238 5235 5234
5724 5715 5705 5694 5683 5671 5660 5647 5635 5622 5610 5600 5589 5579 5567 5557 5547 5539 5531 5523 5513 5504 5494 5483 5472 5460 5447 5434 5420 5406 5393 5381 5367 5352 5335 5319 5300 5281 5261 5246 5236 5229 5226 5225
5718 5708 5698 5688 5677 5666 5655 5642 5630 5618 5607 5597 5587 5576 5565 5555 5546 5538 5531 5523 5514 5504 5494 5484 5472 5461 5448 5435 5421 5407 5395 5381 5366 5351 5336 5321 5303 5283 5262 5244 5232 5225 5221 5219
5711 5702 5692 5681 5671 5660 5649 5637 5625 5614 5604 5594 5584 5573 5562 5553 5544 5537 5529 5520 5512 5503 5493 5483 5472 5461 5450 5436 5423 5410 5396 5382 5368 5355 5341 5325 5308 5288 5267 5249 5235 5226 5220 5217
5705 5695 5685 5675 5665 5655 5644 5632 5621 5610 5601 5591 5581 5571 5561 5552 5544 5536 5528 5520 5511 5502 5493 5483 5474 5464 5451 5439 5427 5413 5398 5385 5372 5360 5346 5331 5314 5297 5279 5261 5245 5233 5225 5220
5697 5688 5679 5669 5659 5649 5639 5628 5617 5607 5598 5588 5579 5569 5560 5551 5544 5537 5530 5521 5513 5504 5495 5486 5477 5466 5455 5444 5431 5416 5402 5390 5378 5365 5352 5338 5323 5308 5293 5277 5261 5247 5237 5229
5690 5681 5672 5663 5653 5644 5634 5623 5613 5603 5595 5586 5577 5567 5558 5550 5543 5536 5529 5521 5513 5505 5497 5489 5479 5469 5459 5448 5435 5421 5409 5397 5385 5372 5360 5347 5333 5319 5305 5292 5278 5266 5254 5244
5683 5674 5665 5657 5648 5638 5629 5619 5609 5600 5592 5583 5575 5565 5557 5549 5543 5536 5528 5521 5513 5506 5498 5490 5482 5473 5463 5451 5439 5428 5416 5404 5393 5380 5368 5355 5343 5330 5318 5306 5294 5283 5273 5263
5676 5667 5659 5651 5642 5634 5624 5615 5606 5597 5589 5581 5573 5564 5556 5549 5543 5536 5529 5522 5515 5508 5500 5492 5484 5475 5466 5455 5445 5435 5424 5412 5401 5389 5377 5365 5353 5341 5330 5319 5308 5298 5288 5279
5669 5661 5653 5645 5637 5629 5620 5611 5602 5594 5587 5579 5571 5562 5555 5548 5542 5536 5529 5523 5516 5509 5501 5494 5486 5478 5469 5460 5451 5442 5431 5421 5410 5398 5387 5375 5364 5352 5341 5331 5320 5311 5301 5293
5662 5654 5646 5639 5631 5624 5615 5607 5599 5591 5584 5576 5569 5561 5553 5547 5541 5536 5530 5524 5517 5510 5503 5495 5488 5481 5473 5465 5457 5448 5439 5428 5418 5407 5397 5386 5375 5364 5353 5343 5332 5323 5314 5305
5654 5647 5640 5633 5626 5619 5611 5602 5595 5588 5581 5574 5566 5559 5552 5546 5541 5535 5530 5524 5518 5511 5505 5498 5491 5484 5476 5469 5461 5453 5444 5435 5425 5416 5406 5396 5386 5375 5365 5355 5345 5336 5326 5317
5647 5640 5634 5627 5621 5613 5606 5598 5591 5584 5578 5571 5564 5557 5550 5545 5540 5535 5530 5525 5519 5513 5507 5500 5493 5487 5480 5473 5465 5458 5450 5441 5433 5424 5415 5405 5396 5386 5376 5366 5357 5348 5339 5330
5639 5633 5627 5621 5614 5608 5601 5593 5587 5581 5575 5569 5562 5555 5549 5543 5539 5535 5530 5525 5520 5515 5509 5503 5496 5490 5483 5476 5469 5462 5454 5447 5439 5431 5422 5414 5405 5396 5386 5377 5368 5360 5351 5343